Miscellaneous Local Product
Issued by NWS Hastings, NE

Home | Current Version | Previous Version | Text Only | Print | Product List | Glossary On
Versions: 1 2 3 4 5 6 7 8 9 10 11 12 13 14 15 16 17 18 19 20 21 22 23 24 25 26 27 28 29 30 31 32 33 34 35 36 37 38 39 40 41 42 43 44 45 46 47 48 49 50
271
AXUS43 KGID 261502
MISGRI

GID CWA HOURLY WEATHER ROUNDUP
NATIONAL WEATHER SERVICE HASTINGS NE
1000 AM CDT THU MAY 26 2016

NOTE: "FAIR" INDICATES FEW OR NO CLOUDS BELOW 12,000 FEET WITH NO
SIGNIFICANT WEATHER AND/OR OBSTRUCTIONS TO VISIBILITY.

...SOUTH CENTRAL NEBRASKA...

CITY           SKY/WX    TMP DP  RH WIND       PRES   REMARKS
GRAND ISLAND   SUNNY     67  56  67 SE9       29.90F
HASTINGS       CLOUDY    67  56  67 E9        29.90R
KEARNEY        PTSUNNY   66  54  63 E13       29.89F
ORD            MOSUNNY   65  55  70 E7        29.89F
YORK           SUNNY     68  59  73 E7        29.88F
LEXINGTON      CLOUDY    65  55  70 E6        29.89F
HOLDREGE       MOSUNNY   63  55  76 NE13      29.90F
HEBRON         SUNNY     72  61  68 SE12      29.86S

...NEBRASKA PANHANDLE...

CITY           SKY/WX    TMP DP  RH WIND       PRES   REMARKS
CHADRON        SUNNY     61  44  53 W13       29.93S
ALLIANCE       CLOUDY    59  45  59 W6        29.93F
SCOTTSBLUFF    MOSUNNY   59  40  49 W6        29.96S
SIDNEY         CLOUDY    61  45  55 NW8       29.97S

...WESTERN AND NORTH CENTRAL NEBRASKA...

CITY           SKY/WX    TMP DP  RH WIND       PRES   REMARKS
VALENTINE      MOSUNNY   67  51  56 S12       29.92R
AINSWORTH      MOSUNNY   65  53  67 SE9       29.94R
ONEILL         CLOUDY    62  55  76 S6        29.95R
BROKEN BOW     CLOUDY    65  53  65 NE5       29.91F
IMPERIAL       CLOUDY    65  50  58 N16       29.92F
NORTH PLATTE   CLOUDY    58  54  86 NW7       29.98R
MCCOOK         PTSUNNY   65  54  67 N10       29.89R

...EASTERN NEBRASKA...

CITY           SKY/WX    TMP DP  RH WIND       PRES   REMARKS
NORFOLK        PTSUNNY   66  53  63 E5        29.90F
SO SIOUX CITY  SUNNY     71  61  70 VRB3      29.88F
TEKAMAH        SUNNY     71  59  65 CALM      29.87F
COLUMBUS       SUNNY     68  55  64 E7        29.90F
ALBION         CLOUDY    65  54  66 E3        29.91R
OMAHA EPPLEY   MOSUNNY   72  62  71 CALM      29.87F
OFFUTT AFB     SUNNY     73  62  68 E5        29.87S
MILLARD        SUNNY     74  59  60 CALM      29.87F
LINCOLN        SUNNY     72  61  68 NE7       29.87F
FALLS CITY     MOSUNNY   77  66  68 VRB3      29.85F

...NORTHERN KANSAS...

CITY           SKY/WX    TMP DP  RH WIND       PRES   REMARKS
GOODLAND       PTSUNNY   67  48  50 E12G20    29.89F
HILL CITY      CLOUDY    66  54  65 E16       29.85F
NORTON         SUNNY     68  48  49 E15       29.85F
PHILLIPSBURG     N/A     68  55  64 E10       29.86S
SMITH CENTER   SUNNY     70  57  64 E12G17    29.84F
BELOIT         PTSUNNY   73  66  78 E7        29.82F
HAYS           CLOUDY    59  55  88 NE12      29.81F
RUSSELL        PTSUNNY   69  63  81 E10       29.80F
CONCORDIA      PTSUNNY   72  65  78 E10       29.83S
SALINA         CLOUDY    77  71  82 E5        29.80F
TOPEKA         CLOUDY    67  65  93 N3        29.86F THUNDER



USA.gov is the U.S. government's official web portal to all federal, state and local government web resources and services.